Location: Asheville, NC
(35.6000°N, 82.5500°W)
Time: 11:35:38
(UTC-05:00)

Vanguard 1 - Visible Passes

Search period start: 20 January 2018 00:00
Search period end: 30 January 2018 00:00
Orbit: 649 x 3834 km, 34.3° (Epoch: 19 January)

Date Brightness Start Highest point End Pass type
(mag) Time Alt. Az. Time Alt. Az. Time Alt. Az.
20 Jan 12.8 02:32:51 39° E 02:32:51 39° E 02:43:20 10° E visible
20 Jan 12.0 04:45:34 55° WSW 04:49:34 68° SSW 05:11:29 10° ESE visible
20 Jan 13.2 06:59:08 10° W 07:14:41 38° SW 07:34:55 10° SSE visible
21 Jan 12.5 02:52:44 46° ESE 02:52:44 46° ESE 03:05:14 10° ESE visible
21 Jan 12.2 05:05:28 45° WSW 05:10:59 60° SSW 05:32:38 10° SE visible
22 Jan 12.3 03:12:39 54° ESE 03:12:39 54° ESE 03:27:02 10° ESE visible
22 Jan 12.4 05:25:22 35° WSW 05:32:21 52° SSW 05:53:26 10° SE visible
23 Jan 13.7 01:19:52 12° E 01:19:52 12° E 01:20:38 10° E visible
23 Jan 12.1 03:32:35 60° SE 03:32:35 60° SE 03:48:40 10° ESE visible
23 Jan 12.6 05:45:18 27° W 05:53:42 43° SSW 06:13:51 10° SSE visible
24 Jan 13.5 01:39:50 16° E 01:39:50 16° E 01:42:26 10° E visible
24 Jan 12.1 03:52:33 61° S 03:52:33 61° S 04:10:05 10° SE visible
24 Jan 12.8 06:05:17 19° W 06:15:03 35° SSW 06:33:47 10° SSE visible
25 Jan 13.3 01:59:49 21° ESE 01:59:49 21° ESE 02:04:13 10° ESE visible
25 Jan 12.1 04:12:32 55° SSW 04:12:32 55° SSW 04:31:12 10° SE visible
25 Jan 13.1 06:25:16 13° W 06:36:24 27° SW 06:53:04 10° SSE visible
26 Jan 13.2 02:19:49 25° ESE 02:19:49 25° ESE 02:25:55 10° ESE visible
26 Jan 12.2 04:32:32 46° SW 04:33:24 47° SSW 04:51:57 10° SE visible
26 Jan 13.3 06:47:00 10° WSW 06:57:46 20° SW 07:11:27 10° S visible
27 Jan 13.0 02:39:51 30° ESE 02:39:51 30° ESE 02:47:27 10° ESE visible
27 Jan 12.4 04:52:35 37° SW 04:54:45 38° SSW 05:12:18 10° SSE visible
27 Jan 13.5 07:11:40 10° WSW 07:19:13 14° SW 07:27:56 10° SSW visible
28 Jan 12.8 02:59:54 33° SE 02:59:54 33° SE 03:08:46 10° SE visible
28 Jan 12.6 05:12:38 28° SW 05:16:06 30° SSW 05:32:06 10° SSE visible
28 Jan 11.6 20:08:51 10° S 20:09:25 12° S 20:09:25 12° S visible
29 Jan 12.7 03:19:57 34° SSE 03:19:57 34° SSE 03:29:47 10° SE visible
29 Jan 12.9 05:32:42 20° WSW 05:37:31 23° SSW 05:51:10 10° S visible
29 Jan 11.6 20:28:47 10° SSW 20:29:29 14° SSW 20:29:29 14° SSW visible
